www.pogodaiklimat.ru

Погода и климат >> Архив погоды >> Австрия >> Кляйнциккен


ПОГОДА в Кляйнциккене

  • Прогноз погоды в Кляйнциккене
  • Монитор погоды в Кляйнциккене

АРХИВ ПОГОДЫ в Кляйнциккене

Время (UTC), дата Ветер
(напр.,м/с)
 
Видим.   Явления Облачность Т
(С)
Тd
(С)
f
(%)
Тe
(С)
Тes
(С)
Комфортность P
(гПа)
Po
(гПа)
Тmin
(С)
Tmax
(С)
R
(мм)
R24
(мм)
S
(см)
07 15.09 ЮВ 1 н/о н/о +15.8 +10.9 73 +17 +17 1028.2 996.5
08 15.09 Ю 2 н/о н/о +19.1 +9.2 53 +20 +20 1027.6 996.2
09 15.09 З 2 н/о н/о +19.4 +10.6 57 +21 +21 комфорт 1027.1 995.8
10 15.09 Ю 2 н/о н/о +21.8 +11.5 52 +24 +24 комфорт 1025.8 994.8
11 15.09 Ю 4 н/о н/о +22.6 +11.9 51 +25 +25 комфорт 1025.2 994.3
12 15.09 ЮЗ 3 30 км 1/0
[Ci fib]
+23.1 +12.4 51 +26 +34 жарко 1024.3 993.5
13 15.09 Ю 3 н/о н/о +24.1 +13.7 52 +26 +26 жарко 1023.4 992.7
14 15.09 Ю 3 н/о н/о +24.1 +13.5 52 +26 +26 жарко 1022.6 992.0
15 15.09 Ю 3 н/о н/о +24.4 +13.9 52 +27 +27 жарко 1022.1 991.5
16 15.09 ЮЗ 2 н/о н/о +24.2 +14.3 54 +27 +27 жарко 1021.6 991.0
17 15.09 З 1 н/о н/о +22.6 +15.1 63 +26 +26 жарко 1021.2 990.5
18 15.09 штиль 0 40 км 1/0
[Ci fib]
+18.6 +15.0 80 +19 +19 1021.5 990.3 +13.3 +24.8
19 15.09 ЮВ 1 н/о н/о +16.3 +14.1 87 +17 +17 1021.7 990.3
20 15.09 С 1 н/о н/о +14.9 +13.3 90 +15 +15 1021.7 990.1
21 15.09 штиль 0 н/о н/о +13.6 +12.5 93 +13 +13 1021.7 990.0
22 15.09 штиль 0 н/о н/о +13.4 +12.5 94 +13 +13 1021.5 989.8
23 15.09 СЗ 1 н/о н/о +13.0 +12.3 96 +13 +13 1021.4 989.6
00 16.09 штиль 0 н/о н/о +12.5 +11.9 96 +12 +12 1021.1 989.3
01 16.09 штиль 0 н/о н/о +10.8 +10.4 97 +10 +10 1021.1 989.1
02 16.09 З 1 н/о н/о +10.6 +10.1 97 +10 +10 1021.0 988.9
03 16.09 ЮВ 1 н/о н/о +10.2 +9.8 97 +10 +10 1020.9 988.8
04 16.09 штиль 0 н/о н/о +9.7 +9.2 97 +9 +9 1020.8 988.6
05 16.09 штиль 0 800 м туман местами ясно +9.3 +8.8 97 +8 +8 1020.9 988.7
06 16.09 Ю 1 н/о н/о +12.6 +12.0 96 +13 +13 1020.5 988.7 +9.0 +19.0
07 16.09 З 1 н/о н/о +15.8 +13.8 88 +16 +16 1020.1 988.7
08 16.09 штиль 0 н/о н/о +20.4 +15.5 73 +23 +23 комфорт 1019.4 988.5
09 16.09 З 1 н/о н/о +24.6 +15.7 58 +28 +28 душно 1018.9 988.4
10 16.09 Ю 2 н/о н/о +25.6 +14.6 51 +28 +28 жарко 1018.3 987.9
11 16.09 Ю 2 н/о н/о +27.0 +15.8 50 +30 +30 душно 1017.5 987.3
12 16.09 Ю 2 30 км 1/1 1500 м
[Cu med, cong Ci fib]
+27.7 +15.3 47 +31 +39 душно 1016.6 986.5
13 16.09 ЮЗ 3 н/о н/о +28.5 +14.7 43 +31 +31 душно 1015.7 985.7
14 16.09 ЮЗ 3 н/о н/о +27.3 +14.4 45 +30 +30 душно 1015.2 985.1
15 16.09 ЮЗ 3 н/о н/о +27.2 +14.9 47 +30 +30 душно 1014.8 984.7
16 16.09 Ю 2 н/о н/о +26.0 +15.6 53 +29 +29 душно 1014.8 984.6
17 16.09 Ю 1 н/о н/о +23.5 +16.5 65 +27 +27 душно 1014.9 984.5
18 16.09 В 1 30 км 8/8 1000 м
[Cu Sc]
+21.3 +16.4 74 +25 +25 комфорт 1015.5 984.8 +11.8 +28.9
19 16.09 ЮВ 1 н/о н/о +19.4 +16.5 83 +22 +22 комфорт 1015.6 984.7
20 16.09 С 1 н/о н/о +18.7 +16.1 85 +21 +21 комфорт 1015.9 984.9
21 16.09 штиль 0 н/о н/о +17.6 +15.8 89 +18 +18 1015.9 984.8
22 16.09 С 1 н/о н/о +17.5 +16.1 91 +19 +19 1015.7 984.6
23 16.09 ЮЗ 1 н/о н/о +18.0 +16.4 90 +19 +19 1015.8 984.8
00 17.09 штиль 0 н/о в посл. час осадки н/о +18.7 +17.0 90 +20 +20 1015.9 984.9 0.0
01 17.09 штиль 0 н/о в посл. час осадки н/о +18.0 +16.8 93 +18 +18 1015.3 984.3 0.2
02 17.09 С 1 н/о ливневой дождь н/о +17.7 +16.9 95 +19 +19 1014.8 983.8 0.1
03 17.09 СЗ 1 н/о осадки {ливн. осадки} н/о +17.2 +16.6 96 +18 +18 1015.1 984.0 0.4
04 17.09 СЗ 1 н/о ливневой дождь н/о +17.3 +16.7 96 +18 +18 1014.9 983.8 0.2
05 17.09 Ю 1 20 км в посл. час ливневой дождь 9/9 1000 м
[Cu Sc]
+17.2 +16.6 96 +18 +18 1015.2 984.1 0.0
06 17.09 СВ 1 н/о {ливн. осадки} н/о +17.6 +16.9 96 +19 +19 1015.4 984.3 +17.0 +21.6 0.6
07 17.09 штиль 0 н/о н/о +19.4 +17.8 90 +21 +21 комфорт 1015.6 984.7
08 17.09 СЗ 1 н/о н/о +19.7 +17.7 88 +23 +23 комфорт 1015.6 984.8
09 17.09 Ю 1 н/о н/о +20.7 +16.9 79 +25 +25 комфорт 1015.5 984.8
10 17.09 ЮЗ 1 н/о н/о +21.8 +16.8 73 +26 +26 душно 1015.3 984.7
11 17.09 штиль 0 н/о н/о +22.8 +15.9 65 +27 +27 душно 1014.9 984.4
12 17.09 Ю 2 20 км в посл. час ливневой дождь 9/9 1000 м
[Cu Sc]
+23.4 +16.4 65 +28 +29 душно 1014.1 983.7 0.0
13 17.09 Ю 2 н/о в посл. час осадки н/о +24.4 +16.6 62 +28 +28 душно 1013.3 983.0 0.0
14 17.09 ЮЗ 3 н/о н/о +24.4 +16.3 61 +28 +28 душно 1012.7 982.4
15 17.09 ЮВ 2 н/о {осадки} н/о +23.0 +16.7 68 +28 +28 душно 1012.2 981.8 0.0
16 17.09 В 4 н/о в посл. час осадки н/о +19.8 +17.4 86 +22 +22 комфорт 1012.9 982.2 0.2
17 17.09 В 2 н/о в посл. час осадки н/о +18.9 +17.3 90 +21 +21 комфорт 1013.2 982.4 2
18 17.09 В 2 12 км в посл. час ливневой дождь 8/8 600 м
[Cb calv]
+17.2 +15.1 87 +18 +18 1014.1 983.0 +17.2 +25.3 3
19 17.09 З 1 н/о н/о +15.9 +14.4 91 +17 +17 1014.7 983.5
20 17.09 С 1 н/о н/о +15.2 +14.3 94 +16 +16 1015.0 983.7
21 17.09 С 1 н/о н/о +13.7 +13.0 96 +14 +14 1015.3 983.8
22 17.09 штиль 0 н/о н/о +12.2 +11.7 97 +12 +12 1015.9 984.2
23 17.09 СВ 1 н/о н/о +13.2 +13.1 99 +13 +13 1016.0 984.4
00 18.09 штиль 0 н/о н/о +11.2 +11.0 99 +10 +10 1016.6 984.8
01 18.09 штиль 0 н/о н/о +11.1 +10.8 98 +10 +10 1016.8 984.9
02 18.09 ЮВ 1 н/о н/о +11.2 +9.8 91 +11 +11 1017.4 985.5
03 18.09 СВ 2 н/о н/о +14.3 +7.2 62 +14 +14 1017.9 986.3
04 18.09 СВ 3 н/о н/о +13.8 +7.7 67 +13 +13 1018.8 987.1
05 18.09 СВ 3 н/о н/о +12.4 +6.3 66 +11 +11 1019.9 988.0
06 18.09 СВ 3 н/о н/о +13.3 +5.7 60 +12 +12 1020.7 988.9 +10.9 +17.5 0.0
07 18.09 С 3 н/о н/о +14.3 +5.7 56 +14 +14 1021.3 989.6
08 18.09 С 5 н/о н/о +15.5 +5.8 52 +14 +14 1022.0 990.4 0.0
09 18.09 СВ 2 н/о н/о +17.6 +5.1 44 +18 +18 1021.9 990.5 0.0
10 18.09 С 3 н/о н/о +18.4 +4.9 41 +19 +19 1022.0 990.7
11 18.09 СВ 2 н/о н/о +18.7 +4.0 38 +19 +19 1022.2 990.9
12 18.09 В 4 н/о н/о +18.5 +4.0 38 +19 +19 1022.2 990.9 0.0
13 18.09 В 3 н/о н/о +18.7 +4.2 38 +19 +19 1021.8 990.5
14 18.09 В 2 н/о н/о +17.9 +4.2 40 +18 +18 1021.8 990.5
15 18.09 ЮВ 3 н/о н/о +16.5 +3.3 41 +16 +16 1022.2 990.7
16 18.09 ЮВ 2 н/о н/о +15.3 +4.8 49 +15 +15 1022.4 990.8
17 18.09 В 1 н/о н/о +14.2 +4.4 52 +15 +15 1022.7 990.9
18 18.09 штиль 0 40 км 4/4 1500 м
[Sc]
+11.3 +6.4 72 +11 +11 1023.6 991.5 +10.9 +19.0 0.0
19 18.09 СВ 1 н/о н/о +11.3 +6.9 74 +11 +11 1024.2 992.1
20 18.09 С 1 н/о н/о +10.1 +7.5 84 +10 +10 1024.7 992.4
21 18.09 С 1 н/о н/о +9.0 +7.2 88 +8 +8 1024.8 992.4
22 18.09 СЗ 1 н/о н/о +7.5 +6.0 90 +7 +7 1024.9 992.3
23 18.09 С 1 н/о н/о +6.5 +5.2 91 +5 +5 1025.2 992.5
00 19.09 штиль 0 н/о н/о +6.9 +6.0 94 +6 +6 1025.2 992.6
01 19.09 штиль 0 н/о н/о +7.4 +6.4 93 +6 +6 1025.0 992.4
02 19.09 СЗ 1 н/о н/о +8.1 +7.1 93 +7 +7 1024.7 992.2
03 19.09 штиль 0 н/о н/о +8.0 +6.9 93 +7 +7 1024.8 992.3
04 19.09 штиль 0 н/о н/о +6.8 +5.9 94 +6 +6 1025.2 992.5
05 19.09 СЗ 1 н/о н/о +6.1 +5.0 93 +5 +5 1025.8 993.0
06 19.09 СЗ 1 н/о н/о +8.1 +6.8 91 +7 +7 1026.1 993.6 +5.6 +11.8
07 19.09 Ю 1 н/о н/о +10.2 +7.3 82 +10 +10 1026.3 994.0
08 19.09 Ю 1 н/о н/о +12.9 +6.7 66 +13 +13 1026.5 994.5
09 19.09 С 2 н/о н/о +14.8 +4.0 48 +15 +15 1026.2 994.4
10 19.09 СВ 2 н/о н/о +15.6 +4.8 49 +16 +16 1025.9 994.2
11 19.09 С 2 н/о н/о +15.8 +3.6 44 +16 +16 1025.5 993.8
12 19.09 В 2 40 км 4/4 1500 м
[Cu med, cong]
+15.7 +4.6 48 +16 +21 1025.5 993.8
13 19.09 В 4 н/о н/о +16.2 +4.6 46 +16 +16 1025.1 993.5
14 19.09 ЮВ 2 н/о н/о +16.2 +4.6 46 +16 +16 1025.1 993.5
15 19.09 С 4 н/о н/о +16.3 +3.4 42 +16 +16 1025.1 993.5
16 19.09 С 3 н/о н/о +15.8 +3.1 43 +15 +15 1025.2 993.5
17 19.09 СВ 1 н/о н/о +13.2 +3.5 52 +14 +14 1026.2 994.2
18 19.09 С 1 н/о н/о +10.2 +4.1 66 +10 +10 1027.0 994.7 +7.4 +18.2
19 19.09 штиль 0 н/о н/о +8.5 +4.1 74 +8 +8 1028.1 995.5
20 19.09 СВ 2 н/о н/о +10.6 +2.1 56 +10 +10 1028.6 996.2
21 19.09 СВ 1 н/о н/о +9.9 +1.9 57 +10 +10 1029.1 996.6
22 19.09 СЗ 2 н/о н/о +8.0 +2.3 67 +6 +6 1029.4 996.7
23 19.09 СВ 1 н/о н/о +6.7 +2.2 73 +6 +6 1029.6 996.8
00 20.09 СЗ 1 н/о н/о +4.5 +2.0 84 +3 +3 1029.9 996.8
01 20.09 ЮВ 1 н/о н/о +4.1 +2.0 86 +3 +3 1029.7 996.6
02 20.09 С 2 н/о н/о +3.5 +1.4 86 +1 +1 1029.5 996.3
03 20.09 СЗ 3 н/о н/о +4.6 +1.8 82 +1 +1 1029.3 996.2
04 20.09 СЗ 2 н/о н/о +4.2 +1.6 83 +1 +1 1029.5 996.4
05 20.09 С 3 30 км 1/0
[Ac lent Ci fib]
+5.0 +1.9 80 +2 +2 1029.4 996.4
06 20.09 СЗ 1 н/о н/о +6.6 +3.1 78 +6 +6 1029.3 996.5 +2.6 +10.9
07 20.09 СЗ 1 н/о н/о +10.4 +4.1 65 +10 +10 1029.3 996.9
08 20.09 С 1 н/о н/о +13.2 +3.3 51 +14 +14 1029.4 997.3
09 20.09 С 1 н/о н/о +13.9 +3.2 48 +14 +14 1029.1 997.1
10 20.09 СВ 2 н/о н/о +15.6 +3.9 46 +16 +16 1028.6 996.8
11 20.09 В 2 н/о н/о +15.0 +3.9 47 +15 +15 1028.3 996.4
12 20.09 штиль 0 н/о н/о +16.1 +2.9 41 +16 +16 1027.7 996.0
14 20.09 ЮВ 2 н/о н/о +16.8 +2.6 39 +17 +17 1026.9 995.3
15 20.09 В 1 н/о н/о +16.3 +3.0 41 +17 +17 1026.9 995.2
16 20.09 В 2 н/о н/о +15.8 +2.8 42 +16 +16 1026.8 995.1
17 20.09 В 1 н/о н/о +13.2 +4.7 56 +14 +14 1027.2 995.2
18 20.09 Ю 1 40 км 1/1 1500 м
[Cu hum Ci fib]
+9.7 +5.3 74 +9 +9 1028.1 995.7 +5.4 +17.6
19 20.09 З 1 н/о н/о +7.5 +4.8 83 +7 +7 1028.7 996.0
20 20.09 штиль 0 н/о н/о +6.0 +4.1 88 +5 +5 1029.2 996.3
21 20.09 СЗ 1 н/о н/о +5.4 +3.8 89 +4 +4 1029.4 996.4
22 20.09 штиль 0 н/о н/о +4.5 +3.2 91 +3 +3 1029.5 996.4
23 20.09 штиль 0 н/о н/о +4.1 +3.1 93 +3 +3 1029.3 996.2
00 21.09 Ю 1 н/о н/о +3.8 +3.0 95 +2 +2 1029.5 996.3
01 21.09 штиль 0 н/о н/о +3.0 +2.1 94 +2 +2 1029.5 996.2
02 21.09 З 1 н/о н/о +2.7 +1.9 94 +1 +1 1029.1 995.8
03 21.09 штиль 0 н/о н/о +2.4 +1.6 94 +1 +1 1028.8 995.5
04 21.09 штиль 0 н/о н/о +2.1 +1.4 95 +1 +1 1028.6 995.3
05 21.09 ЮЗ 1 40 км 1/0
[Ci fib]
+1.5 +0.8 95 -1 -1 1028.7 995.3
06 21.09 штиль 0 н/о н/о +3.7 +3.0 95 +3 +3 1028.4 995.3 +1.4 +9.9
07 21.09 штиль 0 н/о н/о +7.5 +4.8 83 +7 +7 1028.3 995.6
08 21.09 ЮВ 1 н/о н/о +13.5 +6.8 64 +14 +14 1027.7 995.7
09 21.09 Ю 4 н/о н/о +15.6 +4.5 48 +15 +15 1027.4 995.6
10 21.09 Ю 4 н/о н/о +17.0 +3.9 42 +17 +17 1026.8 995.2
11 21.09 Ю 3 н/о н/о +17.9 +4.9 42 +18 +18 1026.1 994.6
12 21.09 Ю 3 н/о н/о +18.7 +4.6 39 +19 +19 1025.4 994.0
13 21.09 Ю 4 н/о н/о +19.1 +4.3 38 +19 +19 1024.6 993.3
14 21.09 ЮЗ 3 н/о н/о +19.4 +4.5 37 +20 +20 1023.8 992.6
15 21.09 Ю 3 н/о н/о +19.0 +5.1 40 +20 +20 1023.4 992.1
16 21.09 Ю 3 н/о н/о +18.0 +5.0 42 +18 +18 1023.0 991.6
17 21.09 Ю 1 н/о н/о +15.0 +5.6 53 +16 +16 1023.3 991.6
18 21.09 ЮВ 1 н/о н/о +11.7 +5.6 66 +12 +12 1023.6 991.5 +3.5 +20.0
19 21.09 ЮВ 1 н/о н/о +10.9 +5.7 70 +11 +11 1024.0 991.8
20 21.09 ЮВ 1 н/о н/о +10.3 +5.3 71 +10 +10 1023.7 991.5
21 21.09 С 1 н/о н/о +8.0 +5.0 81 +7 +7 1023.9 991.4
22 21.09 СЗ 1 н/о н/о +6.2 +4.3 88 +5 +5 1023.7 991.0
23 21.09 штиль 0 н/о н/о +4.7 +3.3 91 +4 +4 1023.3 990.4
00 22.09 СЗ 1 н/о н/о +4.0 +2.8 92 +2 +2 1023.0 990.1
01 22.09 С 1 н/о н/о +4.1 +3.0 93 +3 +3 1022.6 989.7
02 22.09 СЗ 1 н/о н/о +2.4 +1.4 93 +1 +1 1022.6 989.5
03 22.09 СЗ 1 н/о н/о +2.4 +1.5 94 +1 +1 1021.8 988.7
04 22.09 штиль 0 н/о н/о +1.8 +1.1 95 +1 +1 1021.6 988.4
05 22.09 СЗ 1 н/о н/о +1.8 +1.0 94 -0 -0 1021.6 988.4
06 22.09 СЗ 1 н/о н/о +4.3 +3.4 94 +3 +3 1021.2 988.4 +1.4 +11.9
07 22.09 штиль 0 н/о н/о +8.4 +5.6 83 +8 +8 1020.3 988.0

 

Местоположение метеостанции Кляйнциккен (Австрия): широта 47.20 долгота 16.33 высота над уровнем моря 267 м.

В архиве по умолчанию представлена погода в Кляйнциккене за последнюю неделю. Архивные данные за месяц целиком и за предыдущие месяцы, начиная с января 2011 года, Вы можете получить, выбрав интересующий диапазон дат из раскрывающегося списка и нажав кнопку "Ввод!".


*Определитесь, кто Вы:
робот инопланетянин человек

Внимание! Время в таблицах - всемирное. Для получения местного времени необходимо прибавить поправку, которая равна 1 ч.

Смотрите также архив погоды в соседних городах и на ближайших метеорологических станциях:

Погода в Бад-Тацмансдорфе (Австрия) (17 км)
Погода в Сомбатхее (Венгрия) (24 км)
Погода в Хартберге (Австрия) (28 км)
Погода в Сентготтхарде (Венгрия) (31 км)
Погода в Крумбахе (Австрия) (38 км)
Погода в Луцмансбурге (Австрия) (39 км)
Погода в Мёнихкирхене (Австрия) (42 км)
Погода в Фельбахе (Австрия) (44 км)
Погода в Бад-Глайхенбере (Австрия) (49 км)
Погода в Залаэгерсеге (Венгрия) (51 км)

Пояснения к столбцам:

Ветер - указаны скорость ветра в м/с - средняя за 10 мин, порывы в срок и между сроками (в фигурных скобках) и направление, откуда дует ветер: С - северный, СВ - северо-восточный, В - восточный, ЮВ - юго-восточный, Ю - южный, ЮЗ - юго-западный, З - западный, СЗ - северо-западный.
Видимость - горизонтальная дальность видимости в метрах или километрах. При видимости от 1 до 10 км при отсутствии осадков обычно наблюдается дымка, при ухудшении видимости до 1 км и менее - туман. В сухую погоду видимость может ухудшаться дымом, пылью или мглою.
Явления - указаны атмосферные явления, наблюдавшиеся в срок или в последний час перед сроком; фигурными скобками обозначены явления, наблюдавшиеся между сроками (за 1-3 часа до срока); квадратными скобками обозначены град или гололедные отложения с указанием их диаметра в мм.
Облачность - указаны через наклонную черту общая и нижняя облачность в баллах и высота нижней границы облаков в метрах; квадратными скобками обозначены формы облаков: Ci - перистые, Cs - перисто-слоистые, Cc - перисто-кучевые, Ac - высококучевые, As - высокослоистые, Sc - слоисто-кучевые, Ns - слоисто-дождевые, Cu - кучевые, Cb - кучево-дождевые. Подробнее классификацию облаков см. в Атласе облаков (PDF).
T - Температура воздуха - температура, измеренная на высоте 2 м над землей.
Td - Температура точки росы - температура, при понижении до которой содержащийся в воздухе водяной пар достигнет насыщения.
f - Относительная влажность воздуха - влажноcть воздуха, измеренная на высоте 2 м над землей.
Te - Эффективная температура - температура, которую ощущает одетый по сезону человек в тени. Характеристика душности погоды. При расчете учитывается влияние влажности воздуха и скорости ветра на теплоощущения человека.
Tes - Эффективная температура на солнце - температура, которую ощущает человек, с поправкой на солнечный нагрев. Характеристика знойности погоды. Зависит от высоты солнца над горизонтом, облачности и скорости ветра. Ночью, в пасмурную погоду, а также при ветре 12 м/с и более поправка равна нулю.
P - Атмосферное давление - приведенное к уровню моря атмосферное давление.
Po - Атмосферное давление - измеренное на уровне метеостанции атмосферное давление.
Tmin - Минимальная температура - минимум температуры воздуха на высоте 2 м над землей.
Tmax - Максимальная температура - максимум температуры воздуха на высоте 2 м над землей.
R - Количество осадков - Количество выпавших осадков за период времени, мм. При наведении курсора мыши на число - период времени, за который выпало указанное количество осадков.
R24 - Количество осадков - Количество выпавших осадков за 24 часа, мм.
S - Снежный покров - Высота снежного покрова, см. При наведении курсора мыши на число - состояние снежного покрова и степень покрытия местности в баллах.